Regional Weather Roundup
Issued by NWS Newport/Morehead, NC

Current Version | Previous Version | Text Only | Print | Product List | Glossary Off
Versions: 1 2 3 4 5 6 7 8 9 10 11 12 13 14 15 16 17 18 19 20 21 22 23 24 25 26 27 28 29 30 31 32 33 34 35 36 37 38 39 40 41 42 43 44 45 46 47 48 49 50
842 ASUS42 KMHX 240513 RWRMHX WEATHER ROUNDUP FOR EASTERN NORTH CAROLINA NATIONAL WEATHER SERVICE NEWPORT/MOREHEAD CITY NC 100 AM EDT TUE OCT 24 2017 NOTE: "FAIR" INDICATES FEW OR NO CLOUDS BELOW 12,000 FEET WITH NO SIGNIFICANT WEATHER AND/OR OBSTRUCTIONS TO VISIBILITY NCZ015>017-031-032-045>047-102-103-240600- NORTH COAST CITY SKY/WX TMP DP RH WIND PRES REMARKS EDENTON RAIN 76 69 78 S14G22 29.85F ELIZABETH CITY CLOUDY 74 70 87 S13G20 29.87F KITTY HAWK LGT RAIN 74 66 76 S10G21 29.90F MANTEO CLOUDY N/A N/A N/A S18G29 29.91F $$ NCZ045>047-081-094-103-104-240600- CENTRAL COAST CITY SKY/WX TMP DP RH WIND PRES REMARKS FRISCO CLOUDY 77 70 79 S30G39 29.94F $$ NCZ095-097-098-100-101-240600- SOUTHERN COAST CITY SKY/WX TMP DP RH WIND PRES REMARKS BEAUFORT LGT RAIN 76 71 85 S17G26 29.93R CEDAR ISLAND NOT AVBL JACKSONVILLE TSTM 75 73 94 SE12 29.88F PINEY ISLAND N/A N/A N/A N/A S17G30 29.90F WILMINGTON HVY RAIN 73 71 93 SW15G31 29.87R FOG $$ NCZ011>013-027>030-043-044-078>080-089-090>093-098-240600- COASTAL PLAIN CITY SKY/WX TMP DP RH WIND PRES REMARKS AHOSKIE LGT RAIN 70 69 98 SE10G16 29.81F CLINTON MOCLDY 69 68 95 W8G16 29.88S ELIZABETHTOWN NOT AVBL GOLDSBORO LGT RAIN 72 70 94 SW12G18 29.84R FOG GREENVILLE LGT RAIN 73 70 88 S18G28 29.85S HAVELOCK LGT RAIN 75 73 93 S14G25 29.91R FOG KENANSVILLE HVY RAIN 72 68 88 SW6 29.87R FOG KINSTON CLOUDY 75 69 80 S21G33 29.85R NEW BERN RAIN 73 73 100 S21G33 29.86S FOG RICHLANDS LGT RAIN 73 72 96 SE15G24 29.84F ROCKY MOUNT LGT RAIN 64 64 100 SW8G20 29.84R WASHINGTON LGT RAIN 74 70 88 S15G23 29.83R WHITEVILLE MOCLDY 68 64 87 CALM 29.88R $$ AMZ130-135-150-152-154-156-158-170-250-252-270-ANZ085-086-088-633-658-670-240600- MARINE OBSERVATIONS STATION/POSITION TIME TEMP WIND PRES WAVE SWELL AIR SEA DIR/SP/G HT/PER HT/PER (UTC) (F) (DEG/KT/KT) (MB) (FT/S) (FT/S) CHESAPEAKE LIGHT NOT AVBL 64 E VA BEACH 0450 74 69 180/ 25/ 33 1013.5 10/ 8 DUCK 0436 74 70 170/ 28/ 37 1011.2 2 E DUCK 0500 71 N/A 6/ 7 OREGON INLET 0436 75 72 160/ 16/ 21 1013.4 13E OREGON INLT 0448 73 N/A 8/ 7 3/12 HATTERAS CG 0436 77 74 170/ 17/ 26 1013.5 DIAMOND BUOY 0450 79 80 170/ 27/ 35 1013.4 10/ 8 CAPE LOOKOUT 0500 76 170/ 21/ 24 1013.3 BEAUFORT LAB 0436 76 74 180/ 21/ 26 1013.0 30 SE NEW RVR IN 0408 79 180/ 23/ 29 1012.7 30 SE NEW RVR IN NOT AVBL 27 SE WRIGHTSVLE 0408 78 76 170/ 19/ 27 1012.1 5 SE WRIGHTSVLE 0408 76 74 160/ 16/ 27 1011.0 225 S CAPE HAT 0450 78 80 160/ 16/ 19 1016.3 5/ 6 2/ 8 41 SE CHARLESTON 0450 77 80 190/ 23/ 33 1010.5 12/ 8 $$

USA.gov is the U.S. government's official web portal to all federal, state and local government web resources and services.